DW7380 Weather Reports


Display with metric or nautical units.
time (UTC)temp
F
wind
direction
speed
MPH
gust
MPH
rain 1hr
in
rain 24hr
in
rain mn
in
humidity
%
barometer
mb
20210619070105 78 172 0.0 7.0 0.00 0.00 0.00 55 1019.5
20210619065603 78 193 0.0 12.0 0.00 0.00 0.00 56 1019.5
20210619065104 78 136 1.0 15.0 0.00 0.00 0.00 56 1019.4
20210619064603 78 187 3.0 9.0 0.00 0.00 0.00 57 1019.4
20210619064105 77 172 0.0 7.0 0.00 0.00 0.00 58 1019.4
20210619063604 77 220 2.0 7.0 0.00 0.00 0.00 57 1019.4
20210619063103 77 256 1.0 7.0 0.00 0.00 0.00 57 1019.4
20210619062603 77 166 0.0 7.0 0.00 0.00 0.00 57 1019.4
20210619062104 77 179 1.0 8.0 0.00 0.00 0.00 58 1019.4
20210619061603 76 183 0.0 9.0 0.00 0.00 0.00 58 1019.4
20210619061103 76 259 8.0 8.0 0.00 0.00 0.00 58 1019.3
20210619060604 76 251 0.0 9.0 0.00 0.00 0.00 59 1019.3
20210619060103 76 252 3.0 14.0 0.00 0.00 0.00 58 1019.4
20210619055603 76 256 2.0 9.0 0.00 0.00 0.00 57 1019.4
20210619055103 76 269 1.0 7.0 0.00 0.00 0.00 57 1019.3
20210619054604 75 192 5.0 5.0 0.00 0.00 0.00 58 1019.3
20210619054103 75 207 1.0 14.0 0.00 0.00 0.00 58 1019.2
20210619053603 75 174 0.0 12.0 0.00 0.00 0.00 58 1019.2
20210619053103 75 253 3.0 14.0 0.00 0.00 0.00 57 1019.3
20210619052604 75 229 0.0 6.0 0.00 0.00 0.00 58 1019.3
20210619052102 75 182 3.0 8.0 0.00 0.00 0.00 59 1019.2
20210619051603 75 164 5.0 10.0 0.00 0.00 0.00 59 1019.2
20210619051103 75 168 0.0 9.0 0.00 0.00 0.00 59 1019.3
20210619050604 75 172 5.0 10.0 0.00 0.00 0.00 59 1019.3
20210619050103 74 183 0.0 9.0 0.00 0.00 0.00 60 1019.3
20210619045603 74 174 0.0 7.0 0.00 0.00 0.00 60 1019.3
20210619045104 74 176 4.0 8.0 0.00 0.00 0.00 60 1019.3
20210619044603 74 183 1.0 9.0 0.00 0.00 0.00 60 1019.3
20210619044103 74 170 4.0 11.0 0.00 0.00 0.00 60 1019.2
20210619043603 73 164 10.0 10.0 0.00 0.00 0.00 61 1019.3
20210619043104 73 172 3.0 9.0 0.00 0.00 0.00 61 1019.3
20210619042603 73 178 3.0 7.0 0.00 0.00 0.00 61 1019.3
20210619042103 73 170 0.0 7.0 0.00 0.00 0.00 61 1019.5
20210619041604 72 164 7.0 9.0 0.00 0.00 0.00 60 1019.5
20210619041103 72 154 3.0 7.0 0.00 0.00 0.00 60 1019.5
20210619040603 72 177 2.0 10.0 0.00 0.00 0.00 61 1019.5
20210619040103 72 173 2.0 10.0 0.00 0.00 0.00 62 1019.5
20210619035604 71 166 0.0 7.0 0.00 0.00 0.00 62 1019.6
20210619035104 71 174 0.0 5.0 0.00 0.00 0.00 62 1019.4
20210619034603 71 161 5.0 8.0 0.00 0.00 0.00 63 1019.5
20210619034103 71 164 0.0 5.0 0.00 0.00 0.00 64 1019.4
20210619033603 70 171 0.0 5.0 0.00 0.00 0.00 64 1019.5
20210619033103 70 172 3.0 7.0 0.00 0.00 0.00 65 1019.4
20210619032604 70 193 1.0 9.0 0.00 0.00 0.00 65 1019.4
20210619032103 70 165 3.0 8.0 0.00 0.00 0.00 66 1019.5
20210619031603 70 170 2.0 7.0 0.00 0.00 0.00 66 1019.6
20210619031103 69 177 1.0 6.0 0.00 0.00 0.00 67 1019.5
20210619030603 69 175 0.0 2.0 0.00 0.00 0.00 67 1019.5
20210619030104 69 177 0.0 3.0 0.00 0.00 0.00 67 1019.5
20210619025603 69 178 0.0 4.0 0.00 0.00 0.00 67 1019.4
20210619025104 69 166 0.0 0.0 0.00 0.00 0.00 67 1019.3
20210619024603 69 166 0.0 0.0 0.00 0.00 0.00 67 1019.3
20210619024103 69 166 0.0 0.0 0.00 0.00 0.00 67 1019.3
20210619023603 69 166 0.0 0.0 0.00 0.00 0.00 67 1019.3
20210619023104 69 166 0.0 0.0 0.00 0.00 0.00 66 1019.3
20210619022604 69 166 0.0 0.0 0.00 0.00 0.00 66 1019.3
20210619022103 69 166 0.0 0.0 0.00 0.00 0.00 66 1019.3
20210619021603 69 165 0.0 0.0 0.00 0.00 0.00 65 1019.3
20210619021103 69 159 0.0 0.0 0.00 0.00 0.00 65 1019.3
20210619020603 69 153 0.0 0.0 0.00 0.00 0.00 64 1019.3
20210619020104 69 152 0.0 3.0 0.00 0.00 0.00 64 1019.3
20210619015603 69 194 0.0 0.0 0.00 0.00 0.00 64 1019.3
20210619015103 69 194 0.0 0.0 0.00 0.00 0.00 65 1019.3
20210619014604 69 194 0.0 0.0 0.00 0.00 0.00 65 1019.3
20210619014102 69 209 0.0 0.0 0.00 0.00 0.00 65 1019.3
20210619013603 69 209 0.0 0.0 0.00 0.00 0.00 65 1019.3
20210619013103 69 177 0.0 0.0 0.00 0.00 0.00 65 1019.2
20210619012604 69 177 0.0 0.0 0.00 0.00 0.00 65 1019.2
20210619012103 69 177 0.0 0.0 0.00 0.00 0.00 64 1019.2
20210619011603 69 177 0.0 0.0 0.00 0.00 0.00 64 1019.1
20210619011104 69 177 0.0 0.0 0.00 0.00 0.00 64 1019.1
20210619010603 69 178 0.0 0.0 0.00 0.00 0.00 64 1019.1
20210619010103 69 179 0.0 7.0 0.00 0.00 0.00 64 1019.1
20210619005604 69 171 0.0 0.0 0.00 0.00 0.00 65 1019.0
20210619005104 69 170 0.0 0.0 0.00 0.00 0.00 64 1019.0
20210619004604 69 171 0.0 5.0 0.00 0.00 0.00 64 1019.0
20210619004103 69 172 0.0 0.0 0.00 0.00 0.00 64 1019.0
20210619003603 69 172 0.0 0.0 0.00 0.00 0.00 64 1018.9
20210619003103 69 172 0.0 0.0 0.00 0.00 0.00 64 1018.9
20210619002604 69 172 0.0 5.0 0.00 0.00 0.00 64 1018.9
20210619002105 69 179 0.0 2.0 0.00 0.00 0.00 64 1019.0
20210619001603 69 177 0.0 0.0 0.00 0.00 0.00 64 1018.9
20210619001103 70 175 0.0 0.0 0.00 0.00 0.00 64 1019.0
20210619000603 70 175 0.0 1.0 0.00 0.00 0.00 64 1019.0
20210619000104 70 175 0.0 0.0 0.00 0.00 0.00 64 1018.9
20210618235603 70 175 0.0 0.0 0.00 0.00 0.00 64 1018.9
20210618235105 70 181 0.0 0.0 0.00 0.00 0.00 64 1019.0
20210618234603 70 181 0.0 0.0 0.00 0.00 0.00 63 1018.9
20210618234103 70 181 0.0 0.0 0.00 0.00 0.00 64 1018.8
20210618233605 70 185 0.0 0.0 0.00 0.00 0.00 63 1018.9
20210618233103 70 185 0.0 0.0 0.00 0.00 0.00 63 1018.8
20210618232603 71 185 0.0 0.0 0.00 0.00 0.00 63 1018.8
20210618232103 71 164 0.0 0.0 0.00 0.00 0.00 63 1018.8
20210618231605 71 164 0.0 0.0 0.00 0.00 0.00 62 1018.8
20210618231104 71 164 0.0 0.0 0.00 0.00 0.00 61 1018.7
20210618230603 72 164 0.0 0.0 0.00 0.00 0.00 61 1018.7
20210618230103 72 170 0.0 0.0 0.00 0.00 0.00 60 1018.7
20210618225605 72 180 0.0 4.0 0.00 0.00 0.00 60 1018.7
20210618225103 72 160 1.0 5.0 0.00 0.00 0.00 60 1018.7
20210618224603 72 164 0.0 5.0 0.00 0.00 0.00 59 1018.6
20210618224104 72 174 0.0 0.0 0.00 0.00 0.00 59 1018.6
20210618223603 73 164 0.0 0.0 0.00 0.00 0.00 59 1018.6
20210618223102 73 162 0.0 0.0 0.00 0.00 0.00 58 1018.6
20210618222603 73 168 0.0 7.0 0.00 0.00 0.00 58 1018.6
20210618222103 73 154 0.0 6.0 0.00 0.00 0.00 57 1018.5
20210618221605 73 164 0.0 6.0 0.00 0.00 0.00 57 1018.5
20210618221104 73 172 3.0 7.0 0.00 0.00 0.00 57 1018.5
20210618220603 74 184 0.0 7.0 0.00 0.00 0.00 57 1018.6
20210618220104 74 169 1.0 7.0 0.00 0.00 0.00 56 1018.6
20210618215603 74 170 0.0 6.0 0.00 0.00 0.00 56 1018.6
20210618215103 74 145 0.0 4.0 0.00 0.00 0.00 55 1018.6
20210618214603 74 162 0.0 6.0 0.00 0.00 0.00 55 1018.6
20210618214103 75 160 0.0 6.0 0.00 0.00 0.00 54 1018.6
20210618213603 75 166 4.0 6.0 0.00 0.00 0.00 54 1018.6
20210618213105 75 150 3.0 8.0 0.00 0.00 0.00 54 1018.7
20210618212603 75 147 1.0 11.0 0.00 0.00 0.00 54 1018.6
20210618212103 75 170 5.0 10.0 0.00 0.00 0.00 54 1018.6
20210618211603 75 167 7.0 7.0 0.00 0.00 0.00 54 1018.6
20210618211104 75 168 4.0 5.0 0.00 0.00 0.00 53 1018.6
20210618210603 75 155 2.0 7.0 0.00 0.00 0.00 53 1018.5
20210618210103 75 174 1.0 6.0 0.00 0.00 0.00 53 1018.5
20210618205604 75 167 2.0 7.0 0.00 0.00 0.00 53 1018.4
20210618205103 75 159 0.0 5.0 0.00 0.00 0.00 53 1018.4
20210618204603 75 170 0.0 4.0 0.00 0.00 0.00 53 1018.4
20210618204103 75 164 0.0 6.0 0.00 0.00 0.00 53 1018.4
20210618203604 75 164 0.0 4.0 0.00 0.00 0.00 53 1018.3
20210618203104 75 158 1.0 5.0 0.00 0.00 0.00 52 1018.3
20210618202603 75 170 0.0 5.0 0.00 0.00 0.00 52 1018.3
20210618202103 75 170 0.0 4.0 0.00 0.00 0.00 52 1018.2
20210618201603 75 168 1.0 4.0 0.00 0.00 0.00 52 1018.2
20210618201104 76 164 0.0 1.0 0.00 0.00 0.00 52 1018.2
20210618200604 76 164 0.0 5.0 0.00 0.00 0.00 52 1018.1
20210618200103 75 160 0.0 5.0 0.00 0.00 0.00 52 1018.1
20210618195604 75 177 0.0 3.0 0.00 0.00 0.00 52 1018.0
20210618195102 75 176 0.0 6.0 0.00 0.00 0.00 53 1018.0
20210618194602 75 171 0.0 1.0 0.00 0.00 0.00 54 1018.0
20210618194103 75 174 0.0 0.0 0.00 0.00 0.00 54 1017.9
20210618193604 75 173 0.0 0.0 0.00 0.00 0.00 54 1017.9
20210618193103 75 173 0.0 0.0 0.00 0.00 0.00 54 1017.9
20210618192603 75 173 0.0 0.0 0.00 0.00 0.00 54 1017.9
20210618192103 75 173 0.0 0.0 0.00 0.00 0.00 54 1017.9
20210618191605 75 173 0.0 0.0 0.00 0.00 0.00 54 1017.9
20210618191103 76 173 0.0 0.0 0.00 0.00 0.00 54 1017.9
20210618190604 76 172 0.0 0.0 0.00 0.00 0.00 53 1017.9
20210618190103 76 172 0.0 0.0 0.00 0.00 0.00 53 1017.9
20210618185602 76 164 0.0 0.0 0.00 0.00 0.00 53 1017.9
20210618185104 76 161 0.0 0.0 0.00 0.00 0.00 53 1017.9
20210618184606 76 174 0.0 0.0 0.00 0.00 0.00 52 1017.8
20210618184103 76 173 0.0 0.0 0.00 0.00 0.00 52 1017.7
20210618183605 77 185 0.0 0.0 0.00 0.00 0.00 52 1017.7
20210618183103 77 185 0.0 0.0 0.00 0.00 0.00 52 1017.7
20210618182603 77 185 0.0 5.0 0.00 0.00 0.00 51 1017.7
20210618182104 77 168 1.0 5.0 0.00 0.00 0.00 51 1017.6
20210618181603 77 185 2.0 3.0 0.00 0.00 0.00 51 1017.7
20210618181103 78 156 0.0 0.0 0.00 0.00 0.00 50 1017.6
20210618180603 78 156 0.0 0.0 0.00 0.00 0.00 50 1017.6
20210618180103 78 175 0.0 4.0 0.00 0.00 0.00 49 1017.5
20210618175604 78 171 1.0 4.0 0.00 0.00 0.00 49 1017.6
20210618175104 79 167 1.0 3.0 0.00 0.00 0.00 48 1017.6
20210618174603 79 234 0.0 3.0 0.00 0.00 0.00 48 1017.7
20210618174103 79 185 0.0 7.0 0.00 0.00 0.00 48 1017.7
20210618173603 79 168 0.0 4.0 0.00 0.00 0.00 48 1017.7
20210618173104 79 162 2.0 4.0 0.00 0.00 0.00 47 1017.8
20210618172603 79 208 0.0 0.0 0.00 0.00 0.00 47 1017.8
20210618172103 79 208 0.0 4.0 0.00 0.00 0.00 47 1017.8
20210618171603 79 174 0.0 4.0 0.00 0.00 0.00 47 1017.8
20210618171104 80 153 2.0 5.0 0.00 0.00 0.00 46 1017.8
20210618170604 80 158 1.0 5.0 0.00 0.00 0.00 46 1017.8
20210618170103 80 170 0.0 6.0 0.00 0.00 0.00 46 1017.9
20210618165605 80 187 0.0 7.0 0.00 0.00 0.00 46 1017.9
20210618165104 81 212 1.0 3.0 0.00 0.00 0.00 46 1017.9
20210618164603 80 268 0.0 5.0 0.00 0.00 0.00 46 1017.8
20210618164103 80 270 1.0 1.0 0.00 0.00 0.00 45 1017.9
20210618163604 80 172 0.0 11.0 0.00 0.00 0.00 46 1017.9
20210618163103 81 189 4.0 6.0 0.00 0.00 0.00 46 1018.0
20210618162603 80 273 1.0 3.0 0.00 0.00 0.00 46 1018.0
20210618162104 80 187 0.0 3.0 0.00 0.00 0.00 45 1018.1
20210618161604 80 203 0.0 10.0 0.00 0.00 0.00 44 1018.0
20210618161103 80 231 0.0 11.0 0.00 0.00 0.00 45 1018.1
20210618160603 80 172 1.0 6.0 0.00 0.00 0.00 45 1018.2
20210618160103 80 260 7.0 10.0 0.00 0.00 0.00 45 1018.2
20210618155604 80 192 0.0 10.0 0.00 0.00 0.00 45 1018.2
20210618155103 80 180 3.0 10.0 0.00 0.00 0.00 45 1018.3
20210618154603 80 185 1.0 5.0 0.00 0.00 0.00 45 1018.4
20210618154103 80 190 0.0 10.0 0.00 0.00 0.00 45 1018.4
20210618153604 80 262 1.0 5.0 0.00 0.00 0.00 46 1018.4
20210618153103 80 266 1.0 9.0 0.00 0.00 0.00 44 1018.5
20210618152603 80 158 0.0 9.0 0.00 0.00 0.00 45 1018.5
20210618152103 80 269 0.0 9.0 0.00 0.00 0.00 44 1018.5
20210618151603 80 238 8.0 8.0 0.00 0.00 0.00 44 1018.7
20210618151104 80 231 0.0 7.0 0.00 0.00 0.00 44 1018.7
20210618150604 80 262 0.0 2.0 0.00 0.00 0.00 44 1018.8
20210618150103 79 215 0.0 12.0 0.00 0.00 0.00 44 1018.8
20210618145605 79 247 0.0 8.0 0.00 0.00 0.00 46 1018.8
20210618145103 79 224 0.0 12.0 0.00 0.00 0.00 45 1018.8
20210618144603 79 245 0.0 12.0 0.00 0.00 0.00 45 1018.7
20210618144103 79 270 8.0 13.0 0.00 0.00 0.00 45 1018.7
20210618143603 79 235 0.0 13.0 0.00 0.00 0.00 44 1018.8
20210618143105 79 12 13.0 13.0 0.00 0.00 0.00 45 1018.8
20210618142602 79 274 2.0 11.0 0.00 0.00 0.00 45 1018.8
20210618142104 79 226 0.0 9.0 0.00 0.00 0.00 46 1018.8
20210618141603 79 280 6.0 10.0 0.00 0.00 0.00 45 1018.9
20210618141106 79 206 6.0 13.0 0.00 0.00 0.00 46 1019.0
20210618140603 80 250 11.0 15.0 0.00 0.00 0.00 46 1018.9
20210618140104 80 263 3.0 8.0 0.00 0.00 0.00 47 1018.8
20210618135603 79 232 1.0 14.0 0.00 0.00 0.00 46 1018.9
20210618135104 80 224 6.0 13.0 0.00 0.00 0.00 46 1019.0
20210618134603 80 9 8.0 12.0 0.00 0.00 0.00 46 1019.0
20210618134102 81 259 3.0 5.0 0.00 0.00 0.00 47 1018.8
20210618133605 80 235 0.0 10.0 0.00 0.00 0.00 46 1018.9
20210618133103 81 199 0.0 9.0 0.00 0.00 0.00 46 1018.8
20210618132603 80 280 3.0 9.0 0.00 0.00 0.00 46 1018.8
20210618132103 80 217 7.0 8.0 0.00 0.00 0.00 46 1018.8
20210618131604 80 266 7.0 9.0 0.00 0.00 0.00 48 1018.8
20210618131103 80 237 8.0 9.0 0.00 0.00 0.00 47 1018.7
20210618130603 80 256 8.0 13.0 0.00 0.00 0.00 46 1018.9
20210618130104 81 266 4.0 10.0 0.00 0.00 0.00 46 1018.9
20210618125603 82 245 0.0 7.0 0.00 0.00 0.00 45 1018.8
20210618125103 82 204 5.0 7.0 0.00 0.00 0.00 44 1018.8
20210618124604 82 265 0.0 5.0 0.00 0.00 0.00 43 1018.8
20210618124103 81 165 3.0 10.0 0.00 0.00 0.00 43 1018.8
20210618123603 82 243 9.0 9.0 0.00 0.00 0.00 42 1019.0
20210618123103 82 191 0.0 9.0 0.00 0.00 0.00 42 1019.0
20210618122603 81 180 0.0 14.0 0.00 0.00 0.00 42 1019.1
20210618122104 81 195 4.0 16.0 0.00 0.00 0.00 42 1019.0
20210618121603 81 145 12.0 16.0 0.00 0.00 0.00 42 1019.1
20210618121103 82 152 7.0 20.0 0.00 0.00 0.00 41 1019.1
20210618120604 82 264 2.0 16.0 0.00 0.00 0.00 42 1019.2
20210618120103 82 185 0.0 11.0 0.00 0.00 0.00 42 1019.2
20210618115603 82 193 1.0 11.0 0.00 0.00 0.00 41 1019.2
20210618115103 81 219 0.0 12.0 0.00 0.00 0.00 41 1019.1
20210618114604 81 164 0.0 12.0 0.00 0.00 0.00 43 1019.1
20210618114104 81 183 0.0 11.0 0.00 0.00 0.00 40 1019.2
20210618113603 81 147 8.0 16.0 0.00 0.00 0.00 42 1019.3
20210618113103 81 172 3.0 13.0 0.00 0.00 0.00 41 1019.4
20210618112602 80 177 6.0 21.0 0.00 0.00 0.00 42 1019.3
20210618112103 80 178 8.0 19.0 0.00 0.00 0.00 42 1019.3
20210618111604 80 180 5.0 15.0 0.00 0.00 0.00 42 1019.4
20210618111103 80 204 5.0 15.0 0.00 0.00 0.00 43 1019.3
20210618110603 80 158 9.0 20.0 0.00 0.00 0.00 43 1019.5
20210618110104 80 162 12.0 20.0 0.00 0.00 0.00 42 1019.6
20210618105603 80 170 4.0 15.0 0.00 0.00 0.00 43 1019.5
20210618105103 80 160 5.0 20.0 0.00 0.00 0.00 43 1019.6
20210618104604 80 159 0.0 13.0 0.00 0.00 0.00 44 1019.7
20210618104103 80 147 0.0 9.0 0.00 0.00 0.00 45 1019.7
20210618103603 80 174 0.0 12.0 0.00 0.00 0.00 44 1019.7
20210618103103 80 180 3.0 17.0 0.00 0.00 0.00 44 1019.8
20210618102604 80 172 5.0 13.0 0.00 0.00 0.00 45 1019.7
20210618102103 80 231 13.0 13.0 0.00 0.00 0.00 45 1019.7
20210618101603 79 185 0.0 18.0 0.00 0.00 0.00 44 1019.8
20210618101104 80 162 18.0 21.0 0.00 0.00 0.00 45 1019.8
20210618100603 79 179 5.0 21.0 0.00 0.00 0.00 46 1019.7
20210618100103 79 210 5.0 10.0 0.00 0.00 0.00 45 1019.8
20210618095602 79 4 2.0 12.0 0.00 0.00 0.00 45 1019.9
20210618095102 79 203 10.0 11.0 0.00 0.00 0.00 46 1019.9
20210618094603 79 203 0.0 16.0 0.00 0.00 0.00 45 1019.9
20210618094104 79 194 0.0 12.0 0.00 0.00 0.00 46 1019.9
20210618093603 79 83 0.0 18.0 0.00 0.00 0.00 45 1020.0
20210618093103 79 187 0.0 13.0 0.00 0.00 0.00 46 1020.0
20210618092602 78 158 1.0 11.0 0.00 0.00 0.00 45 1020.2
20210618092104 78 253 0.0 14.0 0.00 0.00 0.00 48 1020.1
20210618091603 78 181 1.0 15.0 0.00 0.00 0.00 46 1020.3
20210618091103 78 192 3.0 11.0 0.00 0.00 0.00 46 1020.4
20210618090605 78 280 0.0 13.0 0.00 0.00 0.00 47 1020.3
20210618090103 78 189 0.0 15.0 0.00 0.00 0.00 48 1020.4
20210618085603 78 206 0.0 9.0 0.00 0.00 0.00 49 1020.5
20210618085105 78 180 2.0 13.0 0.00 0.00 0.00 49 1020.5
20210618084603 78 154 6.0 19.0 0.00 0.00 0.00 48 1020.5
20210618084103 77 164 15.0 23.0 0.00 0.00 0.00 48 1020.5
20210618083604 78 156 11.0 19.0 0.00 0.00 0.00 49 1020.5
20210618083103 78 188 3.0 14.0 0.00 0.00 0.00 48 1020.6
20210618082603 78 204 5.0 11.0 0.00 0.00 0.00 49 1020.6
20210618082104 78 149 0.0 15.0 0.00 0.00 0.00 48 1020.7
20210618081603 78 160 7.0 12.0 0.00 0.00 0.00 50 1020.7
20210618081103 78 168 6.0 10.0 0.00 0.00 0.00 50 1020.6
20210618080605 77 173 5.0 6.0 0.00 0.00 0.00 51 1020.6
20210618080102 77 267 0.0 11.0 0.00 0.00 0.00 50 1020.7
20210618075603 77 253 1.0 18.0 0.00 0.00 0.00 50 1020.8
20210618075103 77 152 8.0 11.0 0.00 0.00 0.00 51 1021.0
20210618074604 77 262 1.0 14.0 0.00 0.00 0.00 52 1021.0
20210618074103 77 163 6.0 12.0 0.00 0.00 0.00 51 1021.0
20210618073603 77 165 9.0 10.0 0.00 0.00 0.00 51 1021.1
20210618073103 77 223 0.0 8.0 0.00 0.00 0.00 51 1021.0
20210618072604 76 177 0.0 14.0 0.00 0.00 0.00 51 1021.0
20210618072104 76 165 10.0 16.0 0.00 0.00 0.00 50 1020.9
20210618071602 76 139 7.0 13.0 0.00 0.00 0.00 50 1020.9
20210618071102 77 172 3.0 12.0 0.00 0.00 0.00 49 1020.9
20210618070604 77 161 0.0 11.0 0.00 0.00 0.00 50 1020.9